Starlink 3843

operational
NORAD ID: 52341 Int'l Des: 2022-045 Owner: SPXS Country: US Constellation: starlink
LEOCIRCULAR

About Starlink 3843

Description loading...

Live Position

Loading 3D Globe...

Upcoming Passes

Altitude History

Altitude vs Time

uPlot chart will show altitude changes over time

Two-Line Element Set

1 52341U 22045L 26073.72592494 .00000598 00000-0 55671-4 0 9998
2 52341 53.2171 186.4636 0001150 87.0026 273.1097 15.08840426216400
Epoch: Mar 14, 2026 • Age: 14 hours

Current Status

Altitude 539.6 km
Velocity 7.60 km/s
Sub-Earth Point 14.18°N, 95.45°W
Launch Date Apr 29, 2022
Age 3.8 years
Type internet

Technical Details

Classification Payload
Mass 297.00 kg
Dry Mass 275.00 kg
Total Mass 297.00 kg
Length 0.20 m
Diameter 2.80 m
Span 9.00 m
Shape Box + pan
Manufacturer SPXS
Bus Type Starlink
Phase Status In Orbit
Owner/State SPXS/US

Large Constellations

Loading constellations...